GW2624 Weather Reports


time (UTC)temp
F
wind
direction
speed
knots
gust
knots
rain 1hr
in
rain 24hr
in
rain mn
in
humidity
%
barometer
mb
20260506231905 56 188 0.0 2.6 0.00 0.00 0.00 45 1010.2
20260506225404 56 177 1.7 5.2 0.00 0.00 0.00 51 1010.4
20260506224904 55 217 0.9 6.1 0.00 0.00 0.00 49 1010.4
20260506224403 54 288 2.6 10.4 0.00 0.00 0.00 53 1010.4
20260506223905 53 245 0.9 10.4 0.00 0.00 0.00 57 1010.5
20260506223404 52 248 4.3 10.4 0.00 0.00 0.00 57 1010.8
20260506221904 52 322 0.9 5.2 0.00 0.00 0.00 61 1010.5
20260506220904 54 0 1.7 5.2 0.00 0.00 0.00 60 1010.4
20260506220404 56 0 1.7 5.2 0.00 0.00 0.00 52 1010.2
20260506214404 59 217 2.6 10.4 0.00 0.00 0.00 39 1009.2
20260506213904 58 175 2.6 10.4 0.00 0.00 0.00 39 1009.1
20260506213404 58 204 4.3 10.4 0.00 0.00 0.00 40 1009.1
20260506212904 58 183 4.3 10.4 0.00 0.00 0.00 38 1009.1
20260506211404 59 182 5.2 12.2 0.00 0.00 0.00 38 1008.8
20260506205904 58 179 1.7 7.8 0.00 0.00 0.00 40 1008.9
20260506204904 58 200 1.7 11.3 0.00 0.00 0.00 40 1009.2
20260506204404 58 181 3.5 11.3 0.00 0.00 0.00 41 1008.9
20260506203904 58 200 1.7 7.0 0.00 0.00 0.00 42 1009.2
20260506202404 57 192 0.9 5.2 0.00 0.00 0.00 43 1009.3
20260506201904 57 320 0.9 7.0 0.00 0.00 0.00 50 1009.4
20260506201404 57 203 1.7 7.8 0.00 0.00 0.00 43 1009.5
20260506195904 57 193 5.2 10.4 0.00 0.00 0.00 41 1009.5
20260506194904 57 205 4.3 11.3 0.00 0.00 0.00 42 1009.4
20260506193905 58 231 4.3 11.3 0.00 0.00 0.00 41 1009.5
20260506193404 57 186 4.3 10.4 0.00 0.00 0.00 40 1009.4
20260506191904 56 205 2.6 8.7 0.00 0.00 0.00 45 1009.4
20260506185404 55 0 2.6 10.4 0.00 0.00 0.00 51 1009.6
20260506184904 55 0 2.6 10.4 0.00 0.00 0.00 51 1009.7
20260506183905 56 208 3.5 10.4 0.00 0.00 0.00 47 1009.7
20260506175906 55 211 5.2 11.3 0.00 0.00 0.00 53 1010.0
20260506173904 53 183 4.3 11.3 0.00 0.00 0.00 56 1010.1
20260506173404 52 219 2.6 11.3 0.00 0.00 0.00 59 1010.1
20260506172404 52 161 2.6 11.3 0.00 0.00 0.00 58 1010.1
20260506171903 52 106 4.3 11.3 0.00 0.00 0.00 57 1010.1
20260506170904 52 245 2.6 8.7 0.00 0.00 0.00 59 1010.2
20260506165404 51 143 4.3 7.8 0.00 0.00 0.00 61 1010.0
20260506163904 50 139 4.3 10.4 0.00 0.00 0.00 61 1009.8
20260506162904 49 130 3.5 10.4 0.00 0.00 0.00 66 1009.9
20260506161404 48 0 1.7 6.1 0.00 0.00 0.00 68 1009.9
20260506160904 48 0 1.7 6.1 0.00 0.00 0.00 67 1009.9
20260506154904 47 133 1.7 8.7 0.00 0.00 0.00 69 1010.1
20260506154404 47 206 1.7 7.0 0.00 0.00 0.00 69 1010.1
20260506153904 46 0 2.6 7.0 0.00 0.00 0.00 70 1010.1
20260506152405 47 167 2.6 6.1 0.00 0.00 0.00 70 1010.2
20260506150404 45 0 2.6 7.8 0.00 0.00 0.00 75 1010.0
20260506142404 42 0 1.7 7.8 0.00 0.00 0.00 81 1010.0
20260506141904 41 148 2.6 7.8 0.00 0.00 0.00 80 1010.0
20260506141404 41 136 1.7 6.1 0.00 0.00 0.00 81 1010.1
20260506135904 41 106 1.7 4.3 0.00 0.00 0.00 82 1010.2
20260506135404 41 108 0.9 4.3 0.00 0.00 0.00 83 1010.1
20260506133905 40 146 0.0 2.6 0.00 0.00 0.00 83 1010.0
20260506133404 40 146 0.9 4.3 0.00 0.00 0.00 84 1009.9
20260506132904 39 146 0.9 4.3 0.00 0.00 0.00 84 1009.8
20260506131403 39 142 0.9 2.6 0.00 0.00 0.00 85 1009.5
20260506125903 38 141 1.7 4.3 0.00 0.00 0.00 85 1009.4
20260506125404 38 143 2.6 4.3 0.00 0.00 0.00 85 1009.4
20260506124403 37 153 1.7 4.3 0.00 0.00 0.00 86 1009.2
20260506123904 37 138 1.7 4.3 0.00 0.00 0.00 86 1008.9
20260506123405 37 139 0.9 5.2 0.00 0.00 0.00 86 1009.1
20260506122404 37 144 1.7 6.1 0.00 0.00 0.00 86 1009.1
20260506120904 36 105 0.0 0.9 0.00 0.00 0.00 86 1009.0
20260506120404 36 105 0.0 0.9 0.00 0.00 0.00 86 1009.1
20260506114404 36 138 1.7 4.3 0.00 0.00 0.00 86 1008.7
20260506112904 36 154 0.9 2.6 0.00 0.00 0.00 86 1008.5
20260506105903 35 138 1.7 6.1 0.00 0.00 0.00 87 1007.9
20260506105404 36 142 4.3 5.2 0.00 0.00 0.00 87 1007.9
20260506104904 36 141 0.9 2.6 0.00 0.00 0.00 86 1008.2
20260506104404 36 141 0.0 1.7 0.00 0.00 0.00 87 1008.2
20260506103904 36 141 0.9 1.7 0.00 0.00 0.00 87 1008.1
20260506102404 36 141 0.9 1.7 0.00 0.00 0.00 86 1007.9
20260506101904 36 141 0.0 0.0 0.00 0.00 0.00 86 1007.9
20260506101404 36 141 0.0 0.9 0.00 0.00 0.00 86 1007.9
20260506100905 37 141 0.0 0.9 0.00 0.00 0.00 86 1008.0
20260506100404 37 141 0.9 1.7 0.00 0.00 0.00 86 1008.0
20260506095403 37 141 0.0 0.9 0.00 0.00 0.00 86 1008.0
20260506094904 37 141 0.0 0.9 0.00 0.00 0.00 86 1008.0
20260506094403 37 141 0.0 1.7 0.00 0.00 0.00 86 1007.9
20260506093903 37 141 0.9 2.6 0.00 0.00 0.00 86 1008.0
20260506093404 37 141 0.0 2.6 0.00 0.00 0.00 86 1008.0
20260506092404 37 140 1.7 2.6 0.00 0.00 0.00 86 1007.9
20260506091403 37 148 2.6 4.3 0.00 0.00 0.00 86 1007.8
20260506090904 37 153 1.7 2.6 0.00 0.00 0.00 86 1007.8
20260506085904 38 146 0.9 2.6 0.00 0.00 0.00 86 1007.8
20260506081904 39 144 0.9 2.6 0.00 0.00 0.00 86 1007.2
20260506081404 39 144 1.7 2.6 0.00 0.00 0.00 86 1007.2
20260506080904 39 146 1.7 2.6 0.00 0.00 0.00 86 1007.2
20260506073404 40 142 1.7 2.6 0.00 0.00 0.00 85 1007.4
20260506072404 40 155 1.7 2.6 0.00 0.00 0.00 85 1007.3
20260506071904 40 148 0.9 2.6 0.00 0.00 0.00 85 1007.1
20260506070404 41 148 1.7 2.6 0.00 0.00 0.00 85 1007.0
20260506061404 42 145 1.7 2.6 0.00 0.00 0.00 85 1006.5
20260506051403 43 182 0.9 4.3 0.00 0.00 0.00 84 1007.4
20260506050904 43 288 0.9 4.3 0.00 0.00 0.00 84 1007.4
20260506050404 43 247 1.7 6.1 0.00 0.00 0.00 85 1007.4
20260506044404 43 207 0.0 2.6 0.00 0.00 0.00 85 1006.9
20260506043404 43 105 0.0 2.6 0.00 0.00 0.00 85 1006.0
20260506042904 43 105 0.9 2.6 0.00 0.00 0.00 85 1005.8
20260506042404 43 104 0.9 2.6 0.00 0.00 0.00 85 1005.5
20260506041903 42 52 0.0 1.7 0.00 0.00 0.00 85 1005.5
20260506041404 42 48 0.0 0.0 0.00 0.00 0.00 85 1005.5
20260506040904 42 48 0.0 1.7 0.00 0.00 0.00 84 1005.4
20260506040404 42 48 0.0 2.6 0.00 0.00 0.00 85 1005.6
20260506035904 42 46 0.9 7.8 0.00 0.00 0.00 84 1005.5
20260506034904 43 48 1.7 4.3 0.00 0.00 0.00 84 1005.7
20260506032906 43 289 0.0 2.6 0.00 0.00 0.00 84 1006.1
20260506030404 44 187 0.0 7.8 0.00 0.00 0.00 82 1005.5
20260506025903 44 198 0.9 14.8 0.00 0.00 0.00 81 1005.6
20260506025404 45 209 4.3 14.8 0.00 0.00 0.00 81 1005.7
20260506024405 46 68 0.0 0.0 0.00 0.00 0.00 83 1004.1
20260506023904 46 68 0.0 0.0 0.00 0.00 0.00 82 1003.6
20260506023403 46 68 0.0 2.6 0.00 0.00 0.00 82 1003.4
20260506022904 46 68 0.0 2.6 0.00 0.00 0.00 82 1003.3
20260506022404 46 68 0.9 2.6 0.00 0.00 0.00 82 1003.2
20260506021904 46 68 0.9 2.6 0.00 0.00 0.00 81 1003.3
20260506021404 46 70 0.9 2.6 0.00 0.00 0.00 80 1003.3
20260506020403 47 71 0.0 0.9 0.00 0.00 0.00 78 1003.3
20260506015404 48 71 0.9 6.1 0.00 0.00 0.00 75 1002.8
20260506014403 49 210 4.3 8.7 0.00 0.00 0.00 69 1003.0
20260506013404 52 323 1.7 2.6 0.00 0.00 0.00 58 1002.8
20260506012903 52 317 0.9 2.6 0.00 0.00 0.00 57 1002.3
20260506012404 53 316 1.7 4.3 0.00 0.00 0.00 55 1001.8
20260506011904 54 346 1.7 5.2 0.00 0.00 0.00 55 1001.6
20260506011404 55 250 1.7 5.2 0.00 0.00 0.00 53 1001.3
20260506010404 56 273 2.6 5.2 0.00 0.00 0.00 47 1001.2
20260506004904 57 311 1.7 8.7 0.00 0.00 0.00 45 1001.0
20260506003904 58 203 2.6 10.4 0.00 0.00 0.00 43 1000.8
20260506003403 58 193 4.3 10.4 0.00 0.00 0.00 42 1000.8
20260506002404 59 178 3.5 10.4 0.00 0.00 0.00 41 1000.7
20260506001403 59 213 4.3 10.4 0.00 0.00 0.00 40 1000.5
20260506000403 59 189 5.2 11.3 0.00 0.00 0.00 40 1000.5
20260505235404 59 221 5.2 10.4 0.00 0.00 0.00 44 1000.3
20260505234904 59 174 2.6 12.2 0.00 0.00 0.00 46 1000.4
20260505233905 59 193 3.5 12.2 0.00 0.00 0.00 45 1000.4
20260505233405 59 185 4.3 13.9 0.00 0.00 0.00 45 1000.3
20260505232905 59 165 7.0 13.9 0.00 0.00 0.00 44 1000.3
20260505232405 59 189 3.5 14.8 0.00 0.00 0.00 45 1000.4